Weather Roundup
Issued by NWS

Home | Current Version | Previous Version | Graphics & Text | Print | Product List | Glossary Off
Versions: 1 2 3 4 5 6 7 8 9 10 11 12 13 14 15 16 17 18 19 20 21 22 23 24 25 26 27 28 29 30 31 32 33 34 35 36 37 38 39 40 41 42 43 44 45 46 47 48 49 50

000
NZUS93 KARX 281759
HRRWXR

CURRENT HOURLY OBSERVATIONS ACROSS
MUCH OF THE UPPER MISSISSIPPI VALLEY
NATIONAL WEATHER SERVICE LA CROSSE WI
1200 PM CST WED JAN 28 2015


...SOUTHEAST MINNESOTA...


CITY           SKY/WX    TMP DP  RH WIND       PRES   REMARKS
ROCHESTER      FOG       28  26  92 SE20      29.91F VSB 1/2 WCI  15
ROCHESTER/MAYO CLOUDY    27  26  98 SE14G22   29.93F WCI  15
WINONA         CLOUDY    30  27  86 SE12      30.02F FOG     WCI  21
AUSTIN         CLOUDY    28  28 100 SE12G24   29.89F FOG     WCI  18
ALBERT LEA     FOG       30  30 100 SE20G28   29.86F VSB 1   WCI  18
DODGE CENTER   FOG       28  28 100 SE18      29.89F VSB 1   WCI  16
PRESTON        FOG       27  26  97 SE13G18   29.94F VSB 3/4 WCI  16
OWATONNA       CLOUDY    30  28  93 SE16      29.89F FOG     WCI  19
FARIBAULT      CLOUDY    30  28  93 SE10      29.92F FOG     WCI  21
$$

...ELSEWHERE IN MINNESOTA...


CITY           SKY/WX    TMP DP  RH WIND       PRES   REMARKS
MINNEAPOLIS    CLOUDY    28  24  85 SE15      29.93F FOG     WCI  16
INTNL FALLS    CLOUDY    28  24  85 SE8       29.83F WCI  20
DULUTH         CLOUDY    25  22  88 SE10      29.89F FOG     WCI  15
RED WING       CLOUDY    28  25  86 SE12      29.96F FOG     WCI  18
REDWOOD FALLS  CLOUDY    33  30  88 SE17      29.81F FOG     WCI  22
MANKATO        CLOUDY    30  27  86 SE16      29.87F WCI  19
WORTHINGTON    CLOUDY    30  28  93 S14       29.78F WCI  20
FAIRMONT       CLOUDY    32  27  80 S17       29.83S WCI  21
$$

...SOUTHWEST WISCONSIN...


CITY           SKY/WX    TMP DP  RH WIND       PRES   REMARKS
LA CROSSE      CLOUDY    30  25  81 SE14      30.03F HAZE    WCI  19
PRAIRIE DU CHI FAIR      32  23  69 SE15G25   30.05F WCI  22
BOSCOBEL       PTSUNNY   32  24  72 VRB7      30.07F WCI  26
LONE ROCK      CLOUDY    30  24  78 SE7       30.11F HAZE    WCI  23
PLATTEVILLE    FAIR      31  24  74 SE13      30.08F WCI  21
FORT MC COY    CLOUDY    28  24  85 S9        30.07F FOG     WCI  19
VIROQUA        CLOUDY    27  27 100 SE15      30.03F WCI  15
WIS DELLS      NOT AVBL
$$

...ELSEWHERE IN WISCONSIN...


CITY           SKY/WX    TMP DP  RH WIND       PRES   REMARKS
MILWAUKEE      PTSUNNY   33  19  56 S14       30.17F WCI  23
MADISON        CLOUDY    29  21  72 S17       30.12F WCI  17
GREEN BAY      PTSUNNY   30  22  72 S12       30.14F WCI  20
EAU CLAIRE     NOT AVBL
BLACK RVR FLS  CLOUDY    29  24  79 SE6       30.05F HAZE    WCI  23
MEDFORD        CLOUDY    24  21  88 SE13G20   30.03F FOG     WCI  12
WAUSAU         SUNNY     26  20  77 SE15      30.05F WCI  14
WIS RAPIDS     CLOUDY    26  20  77 S10       30.09F WCI  16
MARSHFIELD     CLOUDY    25  22  88 S17       30.04F FOG     WCI  12
RICE LAKE      CLOUDY    27  24  88 SE17      29.99F FOG     WCI  14
$$

...NORTHEAST IOWA...


CITY           SKY/WX    TMP DP  RH WIND       PRES   REMARKS
DECORAH        CLOUDY    30  28  93 SE14G23   29.98F FOG     WCI  20
MASON CITY     CLOUDY    31  30  96 SE21G28   29.88F FOG     WCI  18
CHARLES CITY   CLOUDY    30  30 100 SE17G24   29.94F FOG     WCI  18
OELWEIN        FAIR      32  28  86 SE23G31   29.96F WCI  19
$$

...ELSEWHERE IN IOWA...


CITY           SKY/WX    TMP DP  RH WIND       PRES   REMARKS
DES MOINES     CLOUDY    41  32  70 S15       29.88F
IOWA CITY      FAIR      34  28  79 SE20G28   30.01F WCI  23
FORT DODGE     CLOUDY    34  28  80 SE9G17    29.85F WCI  26
$$

...NORTHERN ILLINOIS...


CITY           SKY/WX    TMP DP  RH WIND       PRES   REMARKS
CHICAGO-OHARE  PTSUNNY   32  18  56 S12       30.18F WCI  23
CHICAGO-MIDWAY PTSUNNY   33  16  49 S16       30.20F WCI  23
MOLINE         FAIR      32  24  72 SE15G23   30.06F WCI  22
ROCKFORD       CLOUDY    31  20  63 S18       30.16F WCI  19
PEORIA         FAIR      37  27  67 SE15      30.12F WCI  28
$$

NOTE: "FAIR" INDICATES FEW OR NO CLOUDS BELOW 12,000 FEET WITH NO
SIGNIFICANT WEATHER AND/OR OBSTRUCTIONS TO VISIBILITY. WIND
SPEEDS ARE IN MILES-PER-HOUR.



USA.gov is the U.S. government's official web portal to all federal, state and local government web resources and services.